Temp
48 49 49 49 49 49 49 50 51 50 49 50 49 49 49 49 48 48 47 47 47 47
49 48 48 48 49 49 49 49 49 49 49 49 49 49 49 48 48 48 48 48 47 47
49 49 49 49 48 48 49 48 49 48 48 49 49 49 48 48 49 47 48 48 47 47
49 48 49 48 48 49 49 48 48 48 48 48 48 49 48 48 48 47 47 47 46 46
49 48 47 47 48 48 48 48 48 48 47 48 47 48 48 47 48 47 46 47 46 46
49 46 47 48 48 47 48 48 47 47 47 47 47 47 47 47 47 47 47 46 46 46
48 48 48 48 47 47 47 48 46 46 46 46 46 46 46 46 46 46 46 45 46 46
49 49 49 47 46 47 47 47 48 47 46 46 46 47 46 45 45 45 46 45 45 46
49 48 47 47 46 45 46 46 46 45 46 45 46 48 49 47 45 44 44 45 46 47
47 47 47 47 46 45 45 46 45 46 45 45 46 49 51 51 49 46 46 46 45 45
47 47 47 46 46 46 46 45 45 45 45 45 45 49 51 52 51 47 47 46 46 45
47 46 46 45 45 47 46 45 45 45 44 44 45 48 51 51 50 47 46 46 45 44
47 47 46 46 45 46 46 46 46 45 45 46 45 48 50 51 48 45 45 44 44 46
47 47 47 47 46 45 44 45 44 44 46 45 47 45 49 51 48 46 44 44 43 44
MSLP
1024.81 1025.21 1025.63 1026.05 1026.43 1026.79 1027.00 1027.08 1027.38 1027.74 1027.96 1028.07 1028.26 1028.38 1028.54 1028.64 1028.64 1028.69 1028.57 1028.57 1028.56 1028.46
1023.73 1024.27 1024.50 1024.94 1025.50 1025.80 1026.09 1026.42 1026.76 1027.05 1027.26 1027.44 1027.66 1027.80 1027.92 1027.94 1027.88 1028.02 1027.94 1027.88 1027.89 1027.85
1022.51 1023.07 1023.59 1024.25 1024.58 1024.96 1025.28 1025.76 1025.98 1026.31 1026.62 1026.75 1026.89 1027.07 1027.30 1027.29 1027.24 1027.36 1027.31 1027.25 1027.19 1027.14
1021.71 1022.25 1022.79 1023.14 1023.52 1023.92 1024.47 1024.92 1025.21 1025.45 1025.75 1026.02 1026.12 1026.22 1026.40 1026.50 1026.60 1026.66 1026.61 1026.66 1026.66 1026.54
1020.95 1021.60 1022.24 1022.46 1022.63 1023.13 1023.51 1024.00 1024.30 1024.68 1024.98 1025.23 1025.42 1025.49 1025.64 1025.76 1025.84 1025.88 1025.86 1025.90 1026.02 1025.95
1020.40 1020.93 1021.10 1021.54 1022.04 1022.47 1022.80 1023.06 1023.44 1023.80 1024.07 1024.33 1024.54 1024.73 1024.85 1025.01 1025.11 1025.17 1025.16 1025.27 1025.29 1025.26
1019.54 1019.84 1020.08 1020.56 1021.18 1021.62 1022.05 1022.43 1022.66 1022.84 1023.10 1023.37 1023.62 1023.82 1023.95 1024.15 1024.36 1024.43 1024.42 1024.50 1024.62 1024.63
1018.46 1019.03 1019.72 1020.13 1020.44 1020.75 1021.07 1021.40 1021.83 1022.22 1022.40 1022.58 1022.80 1022.85 1023.05 1023.24 1023.40 1023.54 1023.58 1023.71 1023.82 1023.84
1018.00 1018.36 1018.62 1019.02 1019.60 1020.08 1020.39 1020.70 1021.13 1021.39 1021.60 1021.71 1021.72 1021.74 1021.90 1022.18 1022.47 1022.67 1022.76 1022.76 1022.91 1022.99
1017.06 1017.53 1017.90 1018.35 1018.72 1019.03 1019.28 1019.73 1019.93 1020.20 1020.64 1020.82 1020.86 1020.86 1020.93 1021.11 1021.42 1021.68 1021.79 1021.90 1022.03 1022.20
1016.65 1016.62 1016.96 1017.42 1017.98 1018.13 1018.45 1018.65 1018.94 1019.13 1019.43 1019.77 1019.85 1020.04 1020.16 1020.31 1020.50 1020.70 1020.83 1021.00 1021.18 1021.36
1015.96 1016.22 1016.37 1016.54 1016.58 1016.97 1017.36 1017.59 1017.75 1018.08 1018.43 1018.77 1018.91 1019.10 1019.31 1019.60 1019.71 1019.86 1019.98 1020.20 1020.47 1020.64
1015.19 1015.24 1015.34 1015.33 1015.61 1016.02 1016.33 1016.42 1016.73 1016.94 1017.27 1017.47 1017.74 1018.10 1018.49 1018.78 1019.00 1019.11 1019.27 1019.57 1019.78 1019.87
1014.54 1014.51 1014.52 1014.77 1015.11 1015.17 1015.42 1015.57 1015.68 1015.95 1016.10 1016.43 1016.62 1016.93 1017.26 1017.61 1017.97 1018.13 1018.46 1018.70 1018.98 1019.16
Wind_Speed
15 10 10 11 9 8 8 8 7 7 8 8 8 7 7 6 6 7 6 8 7 6
14 15 13 14 10 8 9 8 9 9 9 9 8 8 8 6 8 7 7 7 7 7
15 15 13 11 13 12 10 10 10 9 10 9 9 9 8 7 8 8 7 6 7 7
13 14 13 12 13 13 12 11 12 11 10 10 10 9 9 9 9 9 8 8 8 8
13 13 13 13 14 13 13 12 12 11 11 11 10 10 10 10 9 9 9 9 7 8
14 13 14 14 13 13 13 13 12 12 12 12 11 11 10 10 10 10 10 9 8 8
15 15 13 12 12 13 13 13 13 13 12 12 11 11 10 10 10 10 9 9 9 8
13 13 12 11 11 12 13 13 13 12 12 12 11 9 11 11 10 10 10 9 9 9
11 11 13 13 12 11 12 13 12 13 13 12 9 16 19 14 10 10 10 10 9 9
11 12 12 12 12 13 13 12 13 13 13 13 13 19 21 20 10 10 11 11 9 8
10 12 12 12 13 13 12 13 12 12 13 12 11 20 22 21 12 10 11 11 10 9
10 11 11 12 13 13 12 12 12 10 12 13 12 21 22 18 11 10 11 10 10 10
10 11 12 12 12 10 11 12 9 11 12 16 13 19 22 19 8 11 8 8 9 16
9 10 11 10 9 10 11 10 11 12 11 13 14 12 22 23 10 9 8 8 7 8
Wind_Direction
208 208 212 213 211 221 223 225 222 222 224 228 228 230 232 241 248 246 247 253 248 258
204 208 210 210 211 216 220 224 225 221 223 225 229 230 233 240 247 245 253 252 254 252
206 207 210 207 212 215 220 216 218 220 223 227 227 226 227 239 245 245 252 252 254 254
206 205 205 206 211 214 215 214 217 219 222 225 228 226 226 233 243 243 251 252 251 259
207 202 207 213 211 208 213 212 217 218 221 225 228 228 226 232 235 240 246 252 249 255
211 203 209 213 212 209 213 215 213 215 220 223 225 226 226 230 235 238 242 247 248 250
214 213 212 210 209 208 212 217 216 215 218 219 222 224 226 223 229 236 239 240 243 243
214 215 217 212 208 211 208 216 218 218 220 221 221 223 222 221 225 229 237 237 240 239
215 210 211 212 213 209 215 218 214 219 220 219 222 225 226 218 221 224 230 237 236 239
209 215 216 217 211 212 214 214 216 217 217 224 226 226 229 230 223 220 225 229 232 239
217 218 216 209 218 221 217 213 216 217 216 221 227 227 230 232 231 222 226 224 223 226
220 224 216 217 216 219 215 215 212 215 215 218 229 227 228 228 227 227 227 221 215 216
222 224 222 219 217 217 216 221 215 216 217 220 224 225 226 225 220 227 226 222 220 219
236 233 230 229 222 212 214 219 215 220 219 218 219 219 221 224 215 221 221 220 216 217